Home > Weather > Frankfort > Past weeks

Flag for U.S.A. Weather for the Past 2 Weeks in Frankfort, Kentucky, U.S.A.

Now
36 °F

Mostly cloudy.


Feels Like: 28 °F
Forecast: 28 / 40 °F
Wind: 12 mph from West

Location: Capital City Airport

Current Time: Feb 8, 2016 at 5:02:22 PM

Latest Report: Feb 8, 2016 at 3:53 PM


Visibility: 9 mi

Pressure: 29.68 "Hg

Humidity: 75%

Dew point: 29 °F

Location of FrankfortLocation

Historic Weather in Frankfort — Graph

°F

Frankfort Temperature Yesterday

Maximum temperature yesterday: 52 °F (at 1:53 PM)
Minimum temperature yesterday: 24 °F (at 5:53 AM)
Average temperature yesterday: 39 °F

High & Low Weather Summary for the Past Weeks

 TemperatureHumidityPressure
High70 °F (Feb 2, 2:53 PM)93% (Feb 3, 1:56 AM)30.47 "Hg (Feb 3, 1:56 AM)
Low19 °F (Feb 5, 5:53 AM)26% (Feb 7, 2:53 PM)29.61 "Hg (Feb 2, 11:53 PM)
Average41 °F64%30.02 "Hg
* Reported Jan 24 3:53 PM — Feb 8 3:04 PM, Frankfort, Weather by CustomWeather, © 2016

Note: Actual official high and low records may vary slightly from our data, if they occured in-between our weather recording intervals... More about our weather records

Advertising

Frankfort Weather History for the Previous 24 Hours

 ConditionsComfort  
Time TempWeatherWind HumidityBarometerVisibility
3:04 PM
Mon, Feb 8
36 °FMostly cloudy.7 mph75%29.66 "Hg9 mi
1:53 PM39 °FOvercast.10 mph65%29.66 "Hg10 mi
12:53 PM38 °FMostly cloudy.10 mph76%29.67 "Hg10 mi
11:53 AM36 °FMostly cloudy.10 mph85%29.69 "Hg10 mi
10:53 AM35 °FMostly cloudy.6 mph88%29.69 "Hg10 mi
10:03 AM36 °FLight rain. Mostly cloudy.8 mph89%29.69 "Hg10 mi
9:53 AM36 °FMostly cloudy.N/A89%29.70 "Hg10 mi
6:53 AM33 °FPartly cloudy.6 mph92%29.70 "Hg10 mi
5:53 AM37 °FLight rain. Mostly cloudy.8 mph89%29.72 "Hg7 mi
4:53 AM37 °FOvercast.3 mph89%29.72 "Hg10 mi
3:53 AM38 °FLight rain. Overcast.5 mph86%29.73 "Hg8 mi
2:53 AM43 °FMostly cloudy.10 mph60%29.73 "Hg10 mi
1:53 AM44 °FOvercast.7 mph47%29.73 "Hg10 mi
12:53 AM44 °FMostly cloudy.9 mph43%29.77 "Hg10 mi
11:53 PM
Sun, Feb 7
44 °FMostly cloudy.7 mph41%29.79 "Hg10 mi
10:53 PM43 °FOvercast.6 mph42%29.82 "Hg10 mi
9:53 PM43 °FPassing clouds.6 mph42%29.85 "Hg10 mi
8:53 PM41 °FClear.5 mph45%29.88 "Hg10 mi
7:53 PM44 °FClear.7 mph40%29.89 "Hg10 mi
6:53 PM44 °FClear.5 mph38%29.91 "Hg10 mi
5:53 PM49 °FSunny.10 mph32%29.91 "Hg10 mi
Weather by CustomWeather, © 2016

See weather overviewHow to use our weather pages